NOAA 16 DEB, 41708

Orbit data source: Space-Track

NOAA 16 DEB, 41708 is space debris in SSO originally from a launch on Thu, 21 Sep 2000 UTC launched from the Air Force Western Test Range (AFWTR). Debris objects in space refer to the collection of defunct objects orbiting the Earth. Examples of debris include non-operational satellites, rocket bodies, and fragments generated from explosions, collisions, or faulty payload assembly.

Loading next visibility...
Identifier
41708, 2000-055PN
Orbit
SSO
Country
Flag of USUS
Related business
Manufacturer
Unknown
Mission
Spacecraft
Bus & Motor
Unknown
Mass
Unknown
Launch date (UTC)
2000-09-21 (26 years ago)
Launch vehicle
Unknown
Launch site
Air Force Western Test Range (AFWTR)
Object type
Payload
Rocket body
Debris
Shape & HBR
Unknown shape, 0.1 m
Radar Cross Section
Small (<0.1 m²)

Expand to show TLE details & history
Last TLE update: 15 hours ago

TLE from 15 hours ago
0 NOAA 16 DEB
1 41708U 00055PN  26127.60083959  .00005832  00000-0  16691-2 0  9991
2 41708  98.8661 261.5757 0010310 241.2530 118.7625 14.45398056521109
Epoch: 2026-05-07T14:25Z
TLE epoch observation values (Epoch: 2026-05-07T14:25:12.540Z)
Latitude
0.00001°
Longitude
179.82881°
Altitude
747.201 km
Speed
7.479 km/s
True Right ascension
17h 26m 18s
True Declination
0° 00' 00"
Sunlit
Object was in full shadow at epoch
Visualization orbit readout
Latitude
Unknown
Longitude
Unknown
Altitude
Unknown
Speed
Unknown
Apparent Right ascension
Unknown
Apparent Declination
Unknown
Sunlit
N/A
Visualization observer readout
Local Sidereal Time
13:07:30
Azimuth
Unknown
Elevation
Unknown
Doppler factor
Unknown
Orbital elements
Apogee altitude
745.188 km
Perigee altitude
730.515 km
Semi-major axis
7,115.988 km
Eccentricity
0.00103
Inclination
98.8661°
RAAN
261.5757°
Arg. of periapsis
241.253°
True anomaly
118.866°
Mean anomaly
118.7625°
Eccentric anomaly
118.81426°
Mean motion
3.61568 °/min
Orbital period
99.57 mins
BSTAR
0.0016691
Loading maneuver chart data...
Computing Atmospheric mass density...

Documentation

Showing up to 5 results
|